• In Moldova, Republic
  • List of Countries
  • For 7 days
  • Water Temperature
  • Satellite Maps
  • Weather Map
  • Weather Widgets
  • user-avatar
    Login

    Hourly Weather Sumgayit

    Today, 24 April, Monday

    Time Temperature Precipitation Wind Pressure Humidity
    00:00 +13°C° 0 mm 5 mps 732 mmHg 67%
    01:00 +13°C° 0 mm 5 mps 731 mmHg 65%
    02:00 +13°C° 0 mm 5 mps 731 mmHg 64%
    03:00 +12°C° 0 mm 7 mps 731 mmHg 60%
    04:00 +13°C° 0 mm 6 mps 732 mmHg 63%
    05:00 +13°C° 0 mm 6 mps 733 mmHg 67%
    06:00 +11°C° 0 mm 6 mps 734 mmHg 70%
    07:00 +14°C° 0 mm 7 mps 734 mmHg 60%
    08:00 +16°C° 0 mm 9 mps 735 mmHg 50%
    09:00 +17°C° 0 mm 10 mps 736 mmHg 40%
    10:00 +18°C° 0 mm 10 mps 736 mmHg 39%
    11:00 +18°C° 0 mm 11 mps 737 mmHg 38%
    12:00 +18°C° 0 mm 11 mps 737 mmHg 37%
    13:00 +17°C° 0 mm 11 mps 737 mmHg 39%
    14:00 +17°C° 0 mm 11 mps 738 mmHg 40%
    15:00 +16°C° 0 mm 11 mps 738 mmHg 41%
    16:00 +14°C° 0 mm 10 mps 739 mmHg 44%
    17:00 +13°C° 0 mm 9 mps 739 mmHg 46%
    18:00 +12°C° 0 mm 9 mps 739 mmHg 48%
    19:00 +11°C° 0 mm 7 mps 740 mmHg 49%
    20:00 +11°C° 0 mm 6 mps 740 mmHg 51%
    21:00 +10°C° 0 mm 5 mps 741 mmHg 52%
    22:00 +11°C° 0 mm 4 mps 741 mmHg 54%
    23:00 +11°C° 0 mm 3 mps 741 mmHg 56%

    Tomorrow, 25 April, Tuesday

    Time Temperature Precipitation Wind Pressure Humidity
    00:00 +10°C° 0 mm 2 mps 741 mmHg 58%
    01:00 +10°C° 0 mm 2 mps 741 mmHg 59%
    02:00 +10°C° 0 mm 2 mps 742 mmHg 60%
    03:00 +9°C° 0 mm 2 mps 742 mmHg 61%
    04:00 +10°C° 0 mm 2 mps 742 mmHg 60%
    05:00 +10°C° 0 mm 3 mps 743 mmHg 59%
    06:00 +11°C° 0 mm 3 mps 743 mmHg 58%
    07:00 +12°C° 0 mm 5 mps 744 mmHg 55%
    08:00 +12°C° 0 mm 7 mps 745 mmHg 53%
    09:00 +13°C° 0 mm 9 mps 745 mmHg 51%
    10:00 +13°C° 0 mm 9 mps 746 mmHg 52%
    11:00 +13°C° 0 mm 10 mps 746 mmHg 53%
    12:00 +13°C° 0 mm 11 mps 746 mmHg 55%
    13:00 +12°C° 0 mm 11 mps 746 mmHg 56%
    14:00 +12°C° 0 mm 12 mps 746 mmHg 58%
    15:00 +10°C° 0 mm 12 mps 747 mmHg 60%
    16:00 +9°C° 0 mm 12 mps 747 mmHg 60%
    17:00 +8°C° 0 mm 12 mps 747 mmHg 60%
    18:00 +8°C° 0 mm 12 mps 748 mmHg 61%
    19:00 +8°C° 0 mm 11 mps 749 mmHg 56%
    20:00 +8°C° 0 mm 11 mps 749 mmHg 51%
    21:00 +8°C° 0 mm 10 mps 750 mmHg 47%
    22:00 +8°C° 0 mm 9 mps 750 mmHg 45%
    23:00 +8°C° 0 mm 9 mps 751 mmHg 44%

    Day after tomorrow, 26 April, Wednesday

    Time Temperature Precipitation Wind Pressure Humidity
    00:00 +9°C° 0 mm 8 mps 751 mmHg 43%
    01:00 +9°C° 0 mm 7 mps 751 mmHg 44%
    02:00 +9°C° 0 mm 6 mps 751 mmHg 44%
    03:00 +8°C° 0 mm 6 mps 751 mmHg 45%
    04:00 +8°C° 0 mm 6 mps 752 mmHg 46%
    05:00 +8°C° 0 mm 5 mps 752 mmHg 47%
    06:00 +8°C° 0 mm 5 mps 753 mmHg 47%
    07:00 +9°C° 0 mm 5 mps 753 mmHg 46%
    08:00 +10°C° 0 mm 5 mps 753 mmHg 44%
    09:00 +12°C° 0 mm 5 mps 754 mmHg 42%
    10:00 +13°C° 0 mm 5 mps 754 mmHg 41%
    11:00 +14°C° 0 mm 5 mps 754 mmHg 40%
    12:00 +14°C° 0 mm 5 mps 754 mmHg 39%
    13:00 +14°C° 0 mm 5 mps 753 mmHg 40%
    14:00 +14°C° 0 mm 5 mps 753 mmHg 40%
    15:00 +14°C° 0 mm 4 mps 753 mmHg 41%
    16:00 +13°C° 0 mm 4 mps 752 mmHg 44%
    17:00 +12°C° 0 mm 4 mps 752 mmHg 47%
    18:00 +12°C° 0 mm 4 mps 752 mmHg 50%
    19:00 +11°C° 0 mm 3 mps 752 mmHg 55%
    20:00 +10°C° 0 mm 2 mps 753 mmHg 60%
    21:00 +10°C° 0 mm 1 mps 753 mmHg 64%
    22:00 +9°C° 0 mm 1 mps 752 mmHg 65%
    23:00 +9°C° 0 mm 1 mps 752 mmHg 66%

    27 April, Thursday

    Time Temperature Precipitation Wind Pressure Humidity
    00:00 +9°C° 0 mm 1 mps 752 mmHg 66%
    01:00 +8°C° 0 mm 1 mps 752 mmHg 66%
    02:00 +8°C° 0 mm 1 mps 751 mmHg 65%
    03:00 +8°C° 0 mm 1 mps 751 mmHg 64%
    04:00 +9°C° 0 mm 1 mps 751 mmHg 62%
    05:00 +9°C° 0 mm 1 mps 751 mmHg 60%
    06:00 +10°C° 0 mm 1 mps 752 mmHg 58%
    07:00 +12°C° 0 mm 2 mps 752 mmHg 50%
    08:00 +13°C° 0 mm 2 mps 752 mmHg 43%
    09:00 +14°C° 0 mm 2 mps 752 mmHg 36%
    10:00 +15°C° 0 mm 2 mps 751 mmHg 34%
    11:00 +16°C° 0 mm 3 mps 751 mmHg 33%
    12:00 +17°C° 0 mm 3 mps 751 mmHg 32%
    13:00 +18°C° 0 mm 4 mps 750 mmHg 33%
    14:00 +18°C° 0 mm 4 mps 750 mmHg 34%
    15:00 +17°C° 0 mm 5 mps 750 mmHg 34%
    16:00 +16°C° 0 mm 5 mps 750 mmHg 39%
    17:00 +15°C° 0 mm 4 mps 750 mmHg 43%
    18:00 +15°C° 0 mm 4 mps 750 mmHg 47%
    19:00 +14°C° 0 mm 3 mps 750 mmHg 51%
    20:00 +14°C° 0 mm 2 mps 750 mmHg 54%
    21:00 +13°C° 0 mm 2 mps 750 mmHg 58%
    22:00 +13°C° 0 mm 2 mps 750 mmHg 58%
    23:00 +12°C° 0 mm 1 mps 749 mmHg 59%

    28 April, Friday

    Time Temperature Precipitation Wind Pressure Humidity
    00:00 +12°C° 0 mm 1 mps 749 mmHg 60%
    01:00 +12°C° 0 mm 1 mps 749 mmHg 60%
    02:00 +12°C° 0 mm 2 mps 749 mmHg 59%
    03:00 +12°C° 0 mm 2 mps 748 mmHg 59%
    04:00 +12°C° 0 mm 2 mps 748 mmHg 57%
    05:00 +13°C° 0 mm 2 mps 749 mmHg 55%
    06:00 +13°C° 0 mm 2 mps 749 mmHg 53%
    07:00 +14°C° 0 mm 3 mps 749 mmHg 46%
    08:00 +15°C° 0 mm 4 mps 749 mmHg 39%
    09:00 +18°C° 0 mm 4 mps 749 mmHg 33%
    10:00 +19°C° 0 mm 5 mps 748 mmHg 32%
    11:00 +19°C° 0 mm 5 mps 748 mmHg 31%
    12:00 +20°C° 0 mm 5 mps 748 mmHg 30%
    13:00 +19°C° 0 mm 5 mps 747 mmHg 30%
    14:00 +19°C° 0 mm 5 mps 747 mmHg 31%
    15:00 +19°C° 0 mm 5 mps 746 mmHg 31%
    16:00 +18°C° 0 mm 4 mps 746 mmHg 33%
    17:00 +18°C° 0 mm 4 mps 746 mmHg 35%
    18:00 +17°C° 0 mm 3 mps 746 mmHg 37%
    19:00 +16°C° 0 mm 2 mps 745 mmHg 38%
    20:00 +15°C° 0 mm 2 mps 745 mmHg 40%
    21:00 +14°C° 0 mm 2 mps 745 mmHg 41%
    22:00 +14°C° 0 mm 1 mps 745 mmHg 42%
    23:00 +13°C° 0 mm 1 mps 745 mmHg 43%

    29 April, Saturday

    Time Temperature Precipitation Wind Pressure Humidity
    00:00 +13°C° 0 mm 1 mps 744 mmHg 44%
    01:00 +13°C° 0 mm 1 mps 744 mmHg 45%
    02:00 +13°C° 0 mm 1 mps 744 mmHg 46%
    03:00 +13°C° 0 mm 2 mps 743 mmHg 46%
    04:00 +13°C° 0 mm 2 mps 743 mmHg 47%
    05:00 +14°C° 0 mm 2 mps 743 mmHg 47%
    06:00 +15°C° 0 mm 2 mps 743 mmHg 47%
    07:00 +16°C° 0 mm 2 mps 743 mmHg 44%
    08:00 +18°C° 0 mm 3 mps 743 mmHg 41%
    09:00 +19°C° 0 mm 3 mps 743 mmHg 37%
    10:00 +20°C° 0 mm 3 mps 743 mmHg 36%
    11:00 +21°C° 0 mm 4 mps 743 mmHg 35%
    12:00 +22°C° 0 mm 4 mps 742 mmHg 33%
    13:00 +22°C° 0 mm 4 mps 742 mmHg 34%
    14:00 +22°C° 0 mm 5 mps 742 mmHg 35%
    15:00 +22°C° 0 mm 5 mps 741 mmHg 36%
    16:00 +21°C° 0 mm 4 mps 741 mmHg 39%
    17:00 +20°C° 0 mm 4 mps 741 mmHg 43%
    18:00 +19°C° 0 mm 4 mps 741 mmHg 46%
    19:00 +18°C° 0 mm 3 mps 741 mmHg 50%
    20:00 +17°C° 0 mm 2 mps 741 mmHg 53%
    21:00 +15°C° 0 mm 1 mps 741 mmHg 57%
    22:00 +15°C° 0 mm 1 mps 741 mmHg 57%
    23:00 +15°C° 0 mm 1 mps 741 mmHg 57%
    Show more